| time (UTC) | temp F | wind direction | speed MPH | gust MPH | rain 1hr in | rain 24hr in | rain mn in | humidity % | barometer mb |
| 20260903103058 | 80 | 169 | 2.0 | 10.0 | 0.00 | 0.00 | 0.00 | 84 | 1011.4 |
| 20260903101535 | 80 | 144 | 2.0 | 8.0 | 0.00 | 0.00 | 0.00 | 84 | 1011.5 |
| 20260903100034 | 80 | 154 | 4.0 | 9.0 | 0.00 | 0.00 | 0.00 | 84 | 1011.4 |
| 20260903094639 | 80 | 156 | 4.0 | 11.0 | 0.00 | 0.00 | 0.00 | 84 | 1011.3 |
| 20260903093022 | 80 | 124 | 3.0 | 8.0 | 0.00 | 0.00 | 0.00 | 85 | 1011.3 |
| 20260903091542 | 80 | 183 | 6.0 | 10.0 | 0.00 | 0.00 | 0.00 | 85 | 1011.2 |
| 20260903090056 | 80 | 136 | 4.0 | 7.0 | 0.00 | 0.00 | 0.00 | 85 | 1011.3 |
| 20260903084525 | 80 | 153 | 4.0 | 6.0 | 0.00 | 0.00 | 0.00 | 85 | 1011.3 |
| 20260903083041 | 80 | 158 | 2.0 | 8.0 | 0.00 | 0.00 | 0.00 | 85 | 1011.4 |
| 20260903081554 | 80 | 141 | 2.0 | 7.0 | 0.00 | 0.00 | 0.00 | 85 | 1011.5 |
| 20260903080025 | 80 | 158 | 2.0 | 6.0 | 0.00 | 0.00 | 0.00 | 85 | 1011.4 |
| 20260903074534 | 80 | 153 | 1.0 | 9.0 | 0.00 | 0.00 | 0.00 | 85 | 1011.4 |
| 20260903073102 | 80 | 165 | 3.0 | 9.0 | 0.00 | 0.00 | 0.00 | 84 | 1011.1 |
| 20260903071513 | 80 | 158 | 4.0 | 11.0 | 0.00 | 0.00 | 0.00 | 84 | 1011.2 |
| 20260903070031 | 80 | 174 | 3.0 | 9.0 | 0.00 | 0.00 | 0.00 | 84 | 1011.2 |
| 20260903064552 | 80 | 135 | 3.0 | 7.0 | 0.00 | 0.00 | 0.00 | 83 | 1011.5 |
| 20260903063102 | 80 | 170 | 3.0 | 6.0 | 0.00 | 0.00 | 0.00 | 83 | 1011.7 |
| 20260903061526 | 81 | 130 | 2.0 | 6.0 | 0.00 | 0.00 | 0.00 | 82 | 1011.7 |
| 20260903060039 | 81 | 148 | 4.0 | 8.0 | 0.00 | 0.00 | 0.00 | 82 | 1011.6 |
| 20260903054609 | 81 | 156 | 4.0 | 11.0 | 0.00 | 0.00 | 0.00 | 81 | 1011.5 |
| 20260903053011 | 82 | 152 | 8.0 | 13.0 | 0.00 | 0.00 | 0.00 | 80 | 1011.3 |
| 20260903051530 | 82 | 146 | 6.0 | 14.0 | 0.00 | 0.00 | 0.00 | 78 | 1011.1 |
| 20260903050048 | 82 | 161 | 7.0 | 13.0 | 0.00 | 0.00 | 0.00 | 77 | 1010.8 |
| 20260903044509 | 83 | 145 | 7.0 | 13.0 | 0.00 | 0.00 | 0.00 | 75 | 1010.9 |
| 20260903043025 | 83 | 136 | 5.0 | 11.0 | 0.00 | 0.00 | 0.00 | 74 | 1010.9 |
| 20260903041545 | 84 | 158 | 6.0 | 12.0 | 0.00 | 0.00 | 0.00 | 72 | 1010.8 |
| 20260903040120 | 85 | 150 | 5.0 | 10.0 | 0.00 | 0.00 | 0.00 | 71 | 1010.8 |
| 20260903034512 | 85 | 137 | 7.0 | 14.0 | 0.00 | 0.00 | 0.00 | 69 | 1010.6 |
| 20260903033019 | 86 | 136 | 9.0 | 13.0 | 0.00 | 0.00 | 0.00 | 67 | 1010.5 |
| 20260903031534 | 87 | 140 | 10.0 | 15.0 | 0.00 | 0.00 | 0.00 | 65 | 1010.3 |
| 20260903030054 | 88 | 176 | 8.0 | 15.0 | 0.00 | 0.00 | 0.00 | 63 | 1010.1 |
| 20260903024505 | 89 | 137 | 6.0 | 14.0 | 0.00 | 0.00 | 0.00 | 61 | 1009.9 |
| 20260903023049 | 90 | 126 | 7.0 | 13.0 | 0.00 | 0.00 | 0.00 | 60 | 1009.6 |
| 20260903021502 | 91 | 163 | 9.0 | 15.0 | 0.00 | 0.00 | 0.00 | 58 | 1009.2 |
| 20260903020025 | 92 | 164 | 4.0 | 9.0 | 0.00 | 0.00 | 0.00 | 50 | 1009.0 |
| 20260903014541 | 92 | 137 | 4.0 | 10.0 | 0.00 | 0.00 | 0.00 | 48 | 1008.7 |
| 20260903013102 | 91 | 139 | 1.0 | 3.0 | 0.00 | 0.00 | 0.00 | 45 | 1008.5 |
| 20260903011522 | 93 | 150 | 0.0 | 1.0 | 0.00 | 0.00 | 0.00 | 42 | 1008.4 |
| 20260903010049 | 95 | 171 | 0.0 | 1.0 | 0.00 | 0.00 | 0.00 | 40 | 1008.3 |
| 20260903004503 | 96 | 150 | 0.0 | 1.0 | 0.00 | 0.00 | 0.00 | 37 | 1008.4 |
| 20260903003023 | 98 | 139 | 0.0 | 4.0 | 0.00 | 0.00 | 0.00 | 36 | 1008.4 |
| 20260903001556 | 99 | 154 | 2.0 | 6.0 | 0.00 | 0.00 | 0.00 | 34 | 1008.4 |
| 20260902234515 | 100 | 160 | 4.0 | 8.0 | 0.00 | 0.00 | 0.00 | 34 | 1008.4 |
| 20260902233028 | 101 | 135 | 3.0 | 7.0 | 0.00 | 0.00 | 0.00 | 33 | 1008.5 |
| 20260902231544 | 101 | 148 | 2.0 | 9.0 | 0.00 | 0.00 | 0.00 | 33 | 1008.5 |
| 20260902230121 | 101 | 149 | 2.0 | 6.0 | 0.00 | 0.00 | 0.00 | 32 | 1008.5 |
| 20260902224520 | 101 | 147 | 3.0 | 6.0 | 0.00 | 0.00 | 0.00 | 32 | 1008.5 |
| 20260902223041 | 102 | 148 | 4.0 | 7.0 | 0.00 | 0.00 | 0.00 | 31 | 1008.6 |
| 20260902221601 | 102 | 165 | 2.0 | 9.0 | 0.00 | 0.00 | 0.00 | 33 | 1008.6 |
| 20260902220015 | 102 | 143 | 1.0 | 5.0 | 0.00 | 0.00 | 0.00 | 34 | 1008.7 |
| 20260902214529 | 101 | 151 | 4.0 | 8.0 | 0.00 | 0.00 | 0.00 | 35 | 1008.8 |
| 20260902213049 | 101 | 155 | 2.0 | 7.0 | 0.00 | 0.00 | 0.00 | 35 | 1009.0 |
| 20260902211604 | 100 | 137 | 2.0 | 7.0 | 0.00 | 0.00 | 0.00 | 37 | 1009.2 |
| 20260902210130 | 98 | 152 | 1.0 | 3.0 | 0.00 | 0.00 | 0.00 | 39 | 1009.3 |
| 20260902204515 | 100 | 140 | 4.0 | 8.0 | 0.00 | 0.00 | 0.00 | 37 | 1009.7 |
| 20260902203031 | 100 | 127 | 0.0 | 6.0 | 0.00 | 0.00 | 0.00 | 36 | 1009.7 |
| 20260902201541 | 101 | 139 | 0.0 | 10.0 | 0.00 | 0.00 | 0.00 | 36 | 1010.0 |
| 20260902200106 | 100 | 114 | 3.0 | 9.0 | 0.00 | 0.00 | 0.00 | 37 | 1010.4 |
| 20260902194510 | 96 | 163 | 1.0 | 5.0 | 0.00 | 0.00 | 0.00 | 42 | 1010.7 |
| 20260902193103 | 96 | 165 | 3.0 | 8.0 | 0.00 | 0.00 | 0.00 | 42 | 1010.9 |
| 20260902191519 | 98 | 148 | 0.0 | 4.0 | 0.00 | 0.00 | 0.00 | 40 | 1011.2 |
| 20260902190047 | 99 | 148 | 2.0 | 12.0 | 0.00 | 0.00 | 0.00 | 40 | 1011.4 |
| 20260902184558 | 100 | 149 | 4.0 | 8.0 | 0.00 | 0.00 | 0.00 | 40 | 1011.7 |
| 20260902183022 | 98 | 149 | 1.0 | 6.0 | 0.00 | 0.00 | 0.00 | 43 | 1012.0 |
| 20260902181540 | 97 | 154 | 2.0 | 6.0 | 0.00 | 0.00 | 0.00 | 43 | 1012.2 |
| 20260902180055 | 96 | 133 | 3.0 | 8.0 | 0.00 | 0.00 | 0.00 | 44 | 1012.6 |
| 20260902174519 | 95 | 139 | 4.0 | 9.0 | 0.00 | 0.00 | 0.00 | 47 | 1012.9 |
| 20260902173039 | 95 | 145 | 1.0 | 7.0 | 0.00 | 0.00 | 0.00 | 48 | 1013.1 |
| 20260902171609 | 95 | 150 | 3.0 | 8.0 | 0.00 | 0.00 | 0.00 | 50 | 1013.3 |
| 20260902170003 | 92 | 165 | 2.0 | 8.0 | 0.00 | 0.00 | 0.00 | 55 | 1013.4 |
| 20260902164526 | 92 | 176 | 1.0 | 8.0 | 0.00 | 0.00 | 0.00 | 56 | 1013.7 |
| 20260902163039 | 91 | 136 | 2.0 | 6.0 | 0.00 | 0.00 | 0.00 | 59 | 1013.8 |
| 20260902161557 | 90 | 171 | 4.0 | 9.0 | 0.00 | 0.00 | 0.00 | 62 | 1013.9 |
| 20260902160011 | 88 | 158 | 2.0 | 8.0 | 0.00 | 0.00 | 0.00 | 64 | 1013.9 |
| 20260902154534 | 87 | 130 | 2.0 | 9.0 | 0.00 | 0.00 | 0.00 | 69 | 1013.9 |
| 20260902153051 | 86 | 147 | 3.0 | 9.0 | 0.00 | 0.00 | 0.00 | 71 | 1013.9 |
| 20260902151558 | 85 | 155 | 2.0 | 7.0 | 0.00 | 0.00 | 0.00 | 73 | 1013.9 |
| 20260902150058 | 84 | 158 | 4.0 | 9.0 | 0.00 | 0.00 | 0.00 | 75 | 1014.0 |
| 20260902144511 | 83 | 163 | 4.0 | 8.0 | 0.00 | 0.00 | 0.00 | 78 | 1014.1 |
| 20260902143031 | 83 | 171 | 4.0 | 10.0 | 0.00 | 0.00 | 0.00 | 80 | 1014.1 |
| 20260902141549 | 82 | 147 | 4.0 | 7.0 | 0.00 | 0.00 | 0.00 | 81 | 1014.0 |
| 20260902140104 | 81 | 137 | 2.0 | 6.0 | 0.00 | 0.00 | 0.00 | 84 | 1014.1 |
| 20260902134524 | 79 | 158 | 2.0 | 4.0 | 0.00 | 0.00 | 0.00 | 87 | 1014.2 |
| 20260902133037 | 77 | 172 | 0.0 | 1.0 | 0.00 | 0.00 | 0.00 | 89 | 1014.1 |
| 20260902131551 | 76 | 131 | 0.0 | 0.0 | 0.00 | 0.00 | 0.00 | 89 | 1014.0 |
| 20260902130004 | 74 | 159 | 0.0 | 0.0 | 0.00 | 0.00 | 0.00 | 89 | 1013.8 |
| 20260902124519 | 74 | 142 | 0.0 | 0.0 | 0.00 | 0.00 | 0.00 | 88 | 1013.6 |
| 20260902123043 | 74 | 174 | 0.0 | 0.0 | 0.00 | 0.00 | 0.00 | 88 | 1013.2 |
| 20260902121602 | 74 | 154 | 0.0 | 0.0 | 0.00 | 0.00 | 0.00 | 88 | 1013.2 |
| 20260902120017 | 75 | 180 | 0.0 | 0.0 | 0.00 | 0.00 | 0.00 | 88 | 1013.1 |
| 20260902114538 | 76 | 156 | 0.0 | 1.0 | 0.00 | 0.00 | 0.00 | 88 | 1013.0 |
| 20260902113052 | 76 | 151 | 0.0 | 1.0 | 0.00 | 0.00 | 0.00 | 88 | 1013.0 |
| 20260902111507 | 76 | 165 | 0.0 | 3.0 | 0.00 | 0.00 | 0.00 | 87 | 1012.9 |
| 20260902110025 | 76 | 176 | 0.0 | 3.0 | 0.00 | 0.00 | 0.00 | 87 | 1012.8 |
| 20260902104555 | 76 | 171 | 0.0 | 3.0 | 0.00 | 0.00 | 0.00 | 87 | 1012.9 |